sat.trackr.live / text

‹ back to catalog

STARLINK-5697

NORAD 55589 · 2023-020W

PAYLOAD ACTIVE UNKNOWN

§ Identity

Operator
Country
US
Launch date
2023-02-12
Launch site
AFETR
Launch vehicle
Mass (kg)
RCS (m²)

Purposes: comms

External: N2YO · Heavens-Above · Gunter

§ Orbital elements

Epoch: 2026-09-20T16:17:00.895776Z

Period
94.27 min
Inclination
43.0042°
Eccentricity
0.0001557
Mean motion
15.27575618 rev/d
Perigee alt
482.0 km
Apogee alt
484.1 km
Semi-major
6,861.2 km
B*
-3.6268e-5
RAAN
344.0223°
Arg perigee
293.4556°
Mean anomaly
66.6132°
Rev number
19,873

§ Raw data

STARLINK-56971 55589U 23020W   26263.67848259 -.00001260  00000+0 -36268-4 0  99962 55589  43.0042 344.0223 0001557 293.4556  66.6132 15.27575618198736

JSON: /api/v1/satellites/55589 · /tle

For live sub-satellite position, see the globe view (requires WebGL).

§ Visibility from observer

Set your observer location to see the next 7 days of passes ≥ 10°. The values pass through the URL so the page stays shareable.

No JS? Fill the form by hand. The geolocation button needs JavaScript.